Milford, UT

4:55 AM MDT on June 28, 2017 (GMT -0600)
Milford Municipal

Weather History for KMLF - September, 2013

Change the Weather History Date:

Thursday, September 19, 2013

  Actual Average Record
Temperature  
Mean Temperature 58 °F -  
Max Temperature 73 °F 77 °F 91 °F (2010)
Min Temperature 43 °F 42 °F 30 °F (1996)
Degree Days  
Heating Degree Days 7    
Growing Degree Days 8 (Base 50)    
Moisture  
Dew Point 29 °F    
Average Humidity 33    
Maximum Humidity 58    
Minimum Humidity 7    
Precipitation  
Precipitation 0.00 in - - ()
Sea Level Pressure  
Sea Level Pressure 29.99 in    
Wind  
Wind Speed 10 mph (North)    
Max Wind Speed 17 mph    
Max Gust Speed 24 mph    
Visibility 10 miles    
Events      
Averages and records for this station are not official NWS values.
T = Trace of Precipitation, MM = Missing Value Source: NWS Daily Summary

Daily Weather History Graph

Daily Weather History Graph

Search for Another Location

Airport or City:

Trip Planner

Search our weather history database for the weather conditions in past years. The results will help you decide how hot, cold, wet, or windy it might be!

Date:

Astronomy

Sep. 19, 2013 Rise Set
Actual Time 7:17 AM MDT 7:33 PM MDT
Civil Twilight 6:50 AM MDT 7:59 PM MDT
Nautical Twilight 6:19 AM MDT 8:30 PM MDT
Astronomical Twilight 5:48 AM MDT 9:02 PM MDT
Moon 7:35 PM MDT (9/19) 7:30 AM MDT (9/19)
Length of Visible Light 13h 08m
Length of Day
12h 15m
Full, 100% of the Moon is Illuminated
Sep 19
Full
Sep 26
Last Quarter
Oct 4
New
Oct 11
First Quarter
Oct 18
Full

Hourly Weather History & Observations

Time (MDT) Temp. Windchill Dew Point Humidity Pressure Visibility Wind Dir Wind Speed Gust Speed Precip Events Conditions
12:52 AM 54.0 °F - 28.0 °F 37% 29.91 in 10.0 mi North 11.5 mph - N/A   Clear
1:52 AM 46.9 °F - 28.9 °F 50% 29.94 in 10.0 mi NNE 5.8 mph - N/A   Clear
2:52 AM 46.0 °F 43.9 °F 30.0 °F 54% 29.96 in 10.0 mi NE 4.6 mph - N/A   Clear
3:52 AM 46.9 °F - 30.0 °F 52% 29.96 in 10.0 mi NNW 6.9 mph - N/A   Clear
4:52 AM 46.9 °F - 30.0 °F 52% 29.96 in 10.0 mi North 6.9 mph - N/A   Clear
5:52 AM 44.1 °F 42.5 °F 30.0 °F 58% 29.99 in 10.0 mi North 3.5 mph - N/A   Clear
6:52 AM 48.0 °F - 30.0 °F 50% 30.00 in 10.0 mi North 11.5 mph - N/A   Clear
7:52 AM 46.9 °F - 30.9 °F 54% 30.04 in 10.0 mi NNE 3.5 mph - N/A   Clear
8:52 AM 54.0 °F - 32.0 °F 43% 30.05 in 10.0 mi North 10.4 mph - N/A   Clear
9:52 AM 57.9 °F - 32.0 °F 37% 30.05 in 10.0 mi North 13.8 mph - N/A   Clear
10:52 AM 62.1 °F - 33.1 °F 34% 30.04 in 10.0 mi North 15.0 mph - N/A   Clear
11:52 AM 64.9 °F - 30.9 °F 28% 30.04 in 10.0 mi North 16.1 mph 24.2 mph N/A   Clear
12:52 PM 68.0 °F - 30.0 °F 24% 30.01 in 10.0 mi North 17.3 mph 23.0 mph N/A   Clear
1:52 PM 70.0 °F - 27.0 °F 20% 30.01 in 10.0 mi North 16.1 mph 21.9 mph N/A   Clear
2:52 PM 71.1 °F - 26.1 °F 19% 29.99 in 10.0 mi North 13.8 mph 23.0 mph N/A   Clear
3:52 PM 73.9 °F - 25.0 °F 16% 29.96 in 10.0 mi North 15.0 mph 21.9 mph N/A   Clear
4:52 PM 73.0 °F - 24.1 °F 16% 29.95 in 10.0 mi North 13.8 mph 23.0 mph N/A   Clear
5:52 PM 73.0 °F - 23.0 °F 15% 29.94 in 10.0 mi North 16.1 mph 23.0 mph N/A   Clear
6:52 PM 70.0 °F - 23.0 °F 17% 29.95 in 10.0 mi North 16.1 mph - N/A   Clear
7:52 PM 63.0 °F - 28.0 °F 27% 29.97 in 10.0 mi NNW 10.4 mph - N/A   Clear
8:52 PM 55.9 °F - 28.0 °F 34% 30.00 in 10.0 mi North 5.8 mph - N/A   Clear
9:52 PM 54.0 °F - 28.0 °F 37% 30.00 in 10.0 mi NNW 9.2 mph - N/A   Clear
10:52 PM 50.0 °F - 28.0 °F 43% 30.01 in 10.0 mi North 5.8 mph - N/A   Clear
11:52 PM 48.9 °F - 28.0 °F 44% 30.00 in 10.0 mi North 6.9 mph - N/A   Clear